Location: Brompton
(51.4000°N, 0.5333°E)
Time: 18:32:39
(UTC+00:00)

Cosmos 44 Rocket - Pass Details

Date: 11 May 2021
Orbit: 636 x 754 km, 65.1° (Epoch: 16 June)

Event Time Altitude Azimuth Distance (km) Brightness Sun altitude
Rises 23:20:00 0° 318° (NW) 3,216 7.7 -20.1°
Reaches altitude 10° 23:22:29 10° 324° (NW) 2,288 6.9 -20.1°
Maximum altitude 23:27:37 51° 40° (NE) 941 4.2 -20.2°
Enters shadow 23:31:23 17° 112° (ESE) 1,798 5.2 -20.3°
